Location: Unspecified
(0.0000°N, 0.0000°E)
Time: 17:12:11
(UTC+00:00)

COSMOS 2251 DEB - Pass Details

Date: 21 February 2026
Orbit: 744 x 1394 km, 73.9° (Epoch: 2 March)

Event Time Altitude Azimuth Distance (km) Brightness Sun altitude
Exits shadow 03:26:10 29° 174° (S) 2,274 ? -41.0°
Drops below altitude 10° 03:29:50 10° 171° (S) 3,460 ? -40.1°
Sets 03:32:47 0° 170° (S) 4,452 ? -39.4°
